Theta_e
318 320 321 322 322 321 322 323 323 323 323 322 325 325 325 327 329 325 330 334 337 339 340 340 338 337 337 338 338 337 336 336 338 339 337 337 338 339 339 338 337 335 334 334
320 320 321 320 319 321 322 323 323 323 322 323 326 326 325 334 332 332 333 335 336 339 337 338 338 338 338 338 338 338 336 334 336 340 340 340 339 339 338 336 334 334 335 333
322 321 319 320 321 322 322 322 322 322 323 324 322 326 326 332 339 336 334 333 335 338 339 337 337 338 338 338 337 334 334 335 338 339 339 339 337 335 335 335 335 335 334 334
322 321 321 320 322 321 322 321 322 323 324 325 323 326 328 327 335 340 337 337 336 338 340 337 337 337 337 336 335 336 337 337 338 338 337 336 337 337 337 335 336 335 333 327
321 321 320 322 322 321 322 321 322 323 324 324 325 325 327 333 329 330 340 340 339 340 339 338 337 336 337 337 337 336 337 338 338 338 338 338 339 340 338 336 333 328 326 320
321 320 321 323 320 321 321 323 322 322 324 326 326 325 326 327 331 335 340 340 340 339 339 339 337 337 339 340 339 339 339 340 339 340 340 341 341 336 330 328 327 323 314 313
319 320 321 321 321 321 322 324 326 326 326 326 323 324 326 328 327 333 333 336 340 338 338 336 336 337 338 339 339 338 340 340 340 341 341 339 331 328 328 325 317 315 314 308
320 319 319 319 321 321 323 325 326 326 326 325 323 326 326 328 331 337 337 336 338 338 338 336 336 335 336 336 336 339 339 340 339 339 333 328 328 328 322 316 317 313 309 306
321 320 319 318 320 321 322 324 324 326 323 325 325 326 326 331 336 338 338 338 338 338 337 337 337 336 337 337 337 337 337 335 333 329 328 328 326 319 318 317 314 313 308 304
321 321 320 321 321 320 323 323 325 325 327 327 326 326 326 330 330 333 340 339 338 338 337 336 335 336 336 335 335 336 332 330 327 327 327 323 319 320 319 316 314 312 305 304
319 321 320 320 321 321 321 322 323 325 326 326 327 326 329 331 331 332 332 338 339 337 337 334 336 336 334 334 336 330 328 326 327 327 323 320 319 320 318 316 314 307 304 304
318 321 322 321 320 318 321 322 325 323 324 326 326 326 327 327 327 326 330 337 339 338 335 336 333 332 334 336 329 327 326 326 326 324 321 320 319 319 318 314 308 305 305 305
320 322 324 325 322 320 321 321 322 324 325 325 326 325 326 329 332 332 333 337 338 338 338 336 334 337 336 329 326 326 326 326 325 322 321 319 319 319 315 310 307 306 306 306
319 322 322 323 323 323 325 324 323 325 326 325 325 325 326 327 329 329 334 337 338 336 337 335 334 334 329 327 326 326 326 325 324 322 321 321 320 317 313 308 307 307 307 306
320 323 322 321 321 322 322 323 322 324 325 326 327 327 326 328 329 327 331 336 337 336 335 336 336 333 328 327 326 326 325 324 323 321 321 320 319 313 309 308 308 307 306 305
317 321 320 320 320 319 320 320 321 322 324 325 325 327 326 325 325 326 330 334 336 336 336 335 335 332 329 327 327 326 325 323 322 321 320 319 314 310 309 309 308 307 305 304
315 319 321 319 319 320 319 320 320 321 321 325 327 328 328 327 329 329 330 332 334 336 335 334 337 333 328 328 328 326 324 323 322 322 320 317 311 309 309 308 306 306 304 304
314 319 319 319 320 320 319 323 320 322 325 327 326 326 325 326 328 330 329 331 332 334 334 333 338 332 329 330 329 326 324 324 322 320 319 312 310 309 309 306 306 305 304 304
312 314 316 319 320 319 319 319 319 322 324 325 326 326 326 326 331 331 327 327 330 332 332 332 338 330 330 330 329 325 325 323 321 320 315 310 310 309 305 306 306 306 304 304
313 314 316 319 320 319 323 321 319 320 326 325 323 325 328 332 331 330 330 328 330 331 331 331 334 330 331 330 328 325 323 322 320 316 311 309 309 304 307 307 307 304 304 304
317 317 317 317 320 319 320 320 319 320 324 323 322 324 328 332 333 330 328 329 330 330 330 330 331 330 331 329 326 324 323 321 318 312 309 308 305 307 307 306 305 304 304 304
319 321 321 320 321 321 321 319 320 323 322 322 322 323 324 327 331 329 329 330 330 330 330 330 330 331 330 327 325 323 321 319 313 310 306 306 305 306 306 305 304 304 304 305
319 319 318 320 320 321 320 321 319 318 320 322 325 325 326 327 329 329 329 329 329 330 329 329 330 329 327 325 323 322 321 314 309 305 306 305 305 305 303 301 302 304 305 304
314 315 318 319 316 317 316 314 314 318 320 321 324 326 328 328 329 328 328 327 328 329 329 330 329 327 325 322 321 319 313 308 304 305 305 305 305 303 303 305 305 305 304 304
312 312 313 315 313 311 311 314 317 316 315 315 319 324 326 329 328 326 325 326 326 326 326 328 327 325 323 321 318 312 306 305 304 305 305 304 303 305 305 305 305 304 304 304
307 309 311 311 309 311 313 315 314 312 312 314 318 325 327 327 327 325 324 322 326 324 322 325 325 323 321 314 312 307 306 304 304 305 303 304 305 305 305 305 305 305 303 304
Wind_Speed
4 5 10 8 4 1 1 2 6 7 7 5 6 12 15 13 11 13 21 26 22 24 20 30 32 29 29 27 28 29 29 29 30 29 28 27 25 23 21 20 20 18 16 19
4 9 7 3 6 4 3 4 9 11 4 5 9 15 11 6 4 5 12 18 19 18 26 29 29 29 28 26 25 25 23 23 27 27 25 25 23 21 19 18 17 16 20 19
8 2 5 8 6 5 6 6 8 9 8 5 6 7 5 1 4 2 7 14 15 20 23 27 26 28 25 22 21 17 15 18 23 22 21 19 17 16 16 16 16 19 17 17
6 4 6 7 7 4 8 6 9 7 3 4 2 5 3 5 10 5 9 11 14 17 18 22 22 21 20 19 15 12 14 15 16 15 15 14 13 14 15 14 17 15 15 15
5 5 6 8 14 9 7 5 5 5 5 3 4 5 3 2 6 6 7 10 12 14 16 19 20 20 19 18 17 16 15 15 16 15 16 15 14 14 15 11 11 11 13 15
6 2 3 3 4 10 2 3 1 1 3 6 4 5 4 4 4 4 4 5 9 12 14 16 19 21 20 20 19 17 15 17 16 16 16 14 13 10 7 8 9 11 12 14
3 11 6 5 8 4 4 3 3 5 6 7 1 4 7 9 7 8 10 10 10 13 16 20 23 24 22 19 17 15 17 17 15 16 14 12 9 7 6 7 8 10 12 13
7 4 11 8 16 8 6 6 5 7 6 5 3 4 3 5 7 10 12 12 12 14 17 20 24 25 22 19 18 17 15 14 14 12 10 9 7 5 6 7 7 10 12 13
5 4 2 4 4 11 5 7 2 2 2 4 4 4 10 9 12 11 7 7 13 17 20 21 25 26 23 23 18 15 14 15 13 11 9 7 6 6 5 6 9 13 14 15
5 7 7 3 5 3 5 8 3 2 5 8 5 4 6 7 11 7 10 13 14 16 18 21 25 28 25 21 19 17 16 14 12 9 8 8 6 4 6 9 12 15 15 13
4 5 4 1 7 11 5 5 1 2 2 6 8 6 6 11 11 12 11 13 15 19 20 22 25 26 25 22 19 18 16 13 11 9 8 6 4 6 8 12 15 14 11 11
3 2 4 10 2 5 8 12 8 6 5 2 3 7 5 9 11 13 18 10 14 19 21 22 22 26 26 22 20 17 15 12 11 9 6 4 6 8 11 14 13 11 10 10
4 2 3 4 4 3 2 2 2 0 2 12 10 7 2 8 12 17 17 9 16 20 21 22 25 26 25 23 20 18 15 13 11 7 5 5 8 11 12 12 11 10 11 12
1 2 4 5 1 0 5 5 3 5 4 9 11 16 11 13 14 20 16 11 15 20 24 24 25 25 24 22 19 18 15 12 9 7 6 9 11 12 12 11 9 11 13 15
4 4 4 9 10 10 12 14 12 11 12 8 15 16 15 14 12 16 15 13 17 23 27 29 30 29 26 24 21 17 14 11 8 8 9 10 12 13 11 10 11 13 15 16
3 2 4 6 8 11 16 17 15 16 17 16 20 21 20 27 16 16 14 16 22 27 29 28 29 30 27 23 18 16 14 11 9 9 10 11 12 10 10 11 12 14 16 15
4 3 2 8 4 12 18 16 21 19 18 17 16 15 17 13 14 20 19 21 27 23 24 28 34 32 29 22 19 17 15 11 11 10 10 12 9 9 10 12 13 14 15 15
6 4 4 6 6 14 8 4 5 9 14 15 15 15 17 18 18 21 18 20 23 23 26 31 35 33 29 23 21 18 16 14 13 11 10 10 8 8 12 13 13 14 13 14
20 11 6 6 11 19 22 17 10 8 20 9 11 14 18 12 7 20 24 26 23 23 27 29 37 35 31 25 23 22 19 17 14 10 8 8 8 9 13 12 12 14 14 14
11 14 8 5 6 8 3 3 8 8 13 8 18 15 13 5 5 11 12 16 19 17 21 23 36 38 33 26 27 25 20 15 11 9 8 7 9 9 11 13 14 14 13 16
4 7 16 13 9 11 10 18 14 7 4 24 21 21 16 7 10 14 15 10 12 17 18 25 36 35 30 28 28 24 18 13 10 9 8 7 6 8 11 12 14 12 14 16
8 8 6 9 9 14 9 10 20 11 28 26 35 32 24 23 25 23 17 11 15 19 24 27 33 30 27 27 25 21 15 11 9 7 6 5 6 8 11 12 10 12 15 19
5 5 3 8 5 3 16 15 14 22 25 31 26 32 26 24 22 20 18 14 18 22 24 29 33 31 29 27 22 17 11 10 8 6 5 4 6 9 10 12 11 11 16 20
4 3 5 8 8 20 25 34 33 31 24 29 30 29 29 26 22 19 17 15 19 24 31 34 30 32 31 26 20 12 10 9 7 5 3 4 6 8 8 9 11 12 17 15
7 8 8 19 21 32 33 22 18 26 34 37 36 32 33 26 19 16 17 20 23 26 29 31 33 32 29 24 19 13 11 8 7 3 1 3 6 6 9 12 10 14 16 15
17 13 10 13 20 24 25 28 31 44 43 42 37 36 27 20 14 18 19 24 28 28 30 35 33 29 24 20 16 15 11 8 5 3 3 5 6 9 13 14 14 17 18 16
Wind_Direction
171 204 207 191 193 171 219 260 280 275 271 279 269 278 283 311 295 241 231 222 220 226 220 227 232 238 241 245 251 252 250 250 239 237 232 234 239 243 243 246 248 250 269 276
163 229 212 184 169 180 212 271 279 291 238 268 302 290 288 269 272 251 239 231 223 215 224 227 230 238 242 248 249 254 254 247 236 235 239 238 242 240 241 241 246 259 276 277
215 185 174 189 181 223 246 257 267 269 313 263 294 264 246 237 304 301 250 240 230 220 224 229 229 233 239 238 240 245 244 230 227 233 234 231 228 225 231 244 261 277 279 290
232 220 206 194 239 205 277 225 262 266 285 286 15 285 268 328 304 210 216 227 229 219 215 223 220 222 219 218 217 211 207 208 213 219 222 229 236 238 252 262 274 274 276 287
199 192 191 213 241 200 252 184 272 280 239 272 202 245 268 301 298 307 215 212 222 214 211 209 207 201 197 191 191 190 198 203 208 219 217 227 241 252 269 252 256 270 288 294
239 234 206 238 178 188 131 215 193 135 189 235 227 248 255 299 297 284 50 214 214 204 196 193 197 190 181 173 177 186 198 207 213 219 225 232 243 251 238 244 269 284 296 303
221 238 230 197 256 173 186 266 260 221 214 255 52 235 262 267 264 260 307 288 226 205 193 191 193 185 180 179 182 189 197 208 212 218 223 226 220 218 243 271 279 294 306 309
215 243 214 195 224 228 195 208 233 247 248 270 157 237 241 263 267 277 296 274 216 200 195 195 194 189 186 188 196 199 206 206 204 198 199 201 208 232 254 266 293 312 318 321
184 252 256 219 205 195 163 215 318 182 61 263 272 264 271 251 269 256 260 208 202 198 195 191 194 191 189 195 198 205 203 195 187 187 193 205 222 234 266 304 321 324 324 329
209 266 248 167 159 102 230 144 191 186 239 249 223 256 259 280 282 261 240 230 213 200 192 190 196 192 196 200 204 202 191 189 186 188 199 211 225 270 313 325 322 321 318 318
169 229 217 219 213 229 183 204 141 265 261 265 264 256 221 262 288 287 286 244 213 197 193 194 199 196 199 201 199 193 187 192 192 200 210 221 269 313 321 314 312 309 313 317
27 206 243 254 252 320 247 246 211 244 231 226 283 258 240 258 281 282 286 236 212 201 195 196 187 189 193 195 193 191 194 199 200 207 215 253 296 312 307 305 307 310 314 317
349 231 262 169 132 136 213 184 218 165 287 251 253 257 270 278 277 271 268 223 199 195 191 186 186 188 191 192 194 195 200 196 200 206 228 271 290 296 298 301 304 309 314 316
144 263 254 256 304 23 256 221 252 235 248 259 242 273 261 272 273 281 259 240 206 195 191 188 188 188 192 193 195 198 193 193 199 214 242 270 280 291 293 297 306 310 311 315
42 279 295 271 267 258 255 257 256 235 246 255 277 261 268 267 267 279 275 233 204 197 196 195 193 192 192 192 193 193 194 198 205 224 251 270 283 286 285 296 303 309 312 313
357 290 336 284 287 271 266 257 259 249 253 259 260 268 263 262 265 268 254 228 224 213 203 197 193 193 195 196 193 196 197 201 216 237 261 272 278 281 289 295 302 308 310 309
296 239 268 255 306 302 275 257 237 244 242 242 257 257 278 252 244 256 254 232 234 221 208 196 194 197 199 196 200 200 198 208 225 243 263 270 272 286 290 298 305 306 308 309
224 236 250 267 288 253 263 31 320 249 248 244 256 268 269 259 269 270 261 249 242 220 205 199 196 194 197 197 195 190 200 215 226 242 256 264 278 288 293 299 301 309 310 312
216 224 246 239 225 276 294 281 259 241 267 275 267 275 288 270 280 280 265 260 253 230 217 213 200 194 192 190 192 195 205 211 222 238 246 258 271 286 290 295 302 309 311 316
202 215 233 213 237 250 55 352 172 317 282 342 268 268 291 217 258 266 279 279 249 222 207 204 197 194 191 187 192 197 200 208 221 239 244 248 272 283 289 301 304 310 314 318
155 197 220 230 249 264 247 271 283 269 342 343 346 341 325 259 282 295 296 277 226 214 193 196 195 191 186 189 189 190 194 202 220 225 236 255 272 293 296 306 311 314 322 322
194 184 187 213 237 259 2 256 245 344 323 328 324 319 318 310 293 291 281 253 211 195 189 187 182 182 186 183 184 185 189 204 213 220 231 253 291 297 301 311 322 321 326 326
246 255 242 221 232 317 293 312 305 315 309 314 322 313 312 304 290 275 267 232 197 185 175 170 173 175 173 174 179 182 191 198 201 209 219 274 302 307 318 321 318 329 331 331
269 328 255 297 272 266 296 307 306 310 318 317 312 314 315 300 288 263 239 200 180 172 167 168 169 166 164 167 167 176 184 187 185 197 226 298 318 323 346 343 333 330 330 327
252 319 266 269 278 286 283 290 311 312 313 314 307 304 308 295 276 237 208 185 173 168 167 162 163 165 164 164 165 165 170 172 177 187 293 350 353 358 344 334 325 327 327 323
226 236 238 258 277 270 283 296 303 302 300 296 299 299 300 283 252 222 191 176 168 161 160 159 158 157 155 159 153 156 160 165 168 145 46 6 357 341 334 330 325 322 322 320